Wind_Speed
15 15 16 18 20 22 26 29 32 36 39 47 48 50 53 56 59 63 66 69 70 71 73 76 77 78 77 76 74 73 73 75 77 80 81 80 80 79 78 77 75 72 70 67
16 16 17 20 20 24 30 35 38 41 43 50 54 57 59 62 65 68 71 72 74 76 77 76 73 68 62 57 53 51 49 48 50 54 60 66 72 76 79 80 81 80 77 75
17 16 19 23 25 30 35 39 44 47 49 52 55 58 61 64 67 71 73 76 78 75 69 60 50 43 39 37 36 36 35 34 34 34 34 35 39 46 54 62 70 75 78 78
19 20 22 26 28 34 38 42 47 50 53 56 59 61 63 66 71 75 77 76 69 59 48 41 37 37 38 40 41 42 41 41 41 39 36 34 33 32 33 35 41 49 57 64
22 22 28 32 34 39 44 48 53 55 57 60 63 65 67 71 75 75 70 62 52 44 39 38 39 40 42 43 45 45 45 45 44 43 41 39 36 34 34 34 34 34 37 43
25 28 31 36 41 45 49 51 56 58 60 62 65 68 70 72 71 64 56 48 42 39 39 40 43 45 47 48 49 49 49 48 47 46 45 43 42 40 38 37 35 34 32 32
28 30 36 39 44 46 49 52 54 56 59 64 68 72 72 68 60 52 45 41 40 42 44 47 49 51 52 52 52 52 51 50 49 48 47 46 45 43 40 39 37 35 33 31
30 33 38 42 46 50 53 57 59 62 65 69 71 71 66 59 51 45 42 42 44 47 50 52 54 56 55 55 54 53 52 51 50 48 48 47 45 43 41 39 38 36 34 32
33 36 40 45 49 52 56 59 62 65 68 71 72 68 60 52 46 45 46 47 50 53 55 57 58 58 58 57 55 54 52 50 49 47 45 44 42 41 40 38 37 35 34 31
34 38 42 47 50 53 56 60 63 66 70 71 69 62 54 49 48 49 51 54 56 58 59 58 57 57 56 55 53 51 48 46 44 43 41 39 38 38 37 36 35 33 32 30
38 42 44 47 51 54 57 61 64 68 70 70 65 57 51 50 51 54 56 57 57 57 55 54 53 52 50 49 47 45 44 42 39 37 35 34 33 33 32 31 31 30 29 28
40 44 47 50 52 56 59 62 65 68 69 67 59 53 51 53 56 57 57 57 55 54 53 51 49 46 44 43 42 40 37 35 32 31 30 29 28 28 27 27 27 27 26 24
41 44 47 50 52 56 59 62 65 67 68 63 55 51 52 55 56 56 57 56 54 52 49 47 45 42 38 36 34 32 29 27 25 24 23 23 23 23 23 24 25 25 24 22
43 45 47 49 52 56 60 62 64 66 64 58 52 51 53 54 55 55 56 55 53 51 48 46 42 38 34 30 26 23 21 20 17 15 14 15 16 18 20 21 22 22 20 18
44 46 47 49 51 55 58 60 63 63 62 54 50 50 51 53 53 54 55 54 52 50 46 43 41 37 32 28 24 21 18 15 11 7 5 8 12 15 18 19 19 18 16 15
42 44 46 47 50 54 57 60 62 62 59 51 47 47 49 51 52 53 53 53 52 49 45 43 41 38 34 29 25 21 18 14 10 5 5 9 13 16 19 19 18 17 16 16
41 44 45 47 50 54 57 59 61 61 56 48 44 44 46 49 50 51 52 52 51 49 47 43 40 38 35 31 27 23 20 17 15 13 12 14 16 18 19 19 18 17 16 17
42 44 46 48 50 54 56 57 59 58 54 46 41 41 43 46 48 50 50 49 48 48 46 44 42 39 36 34 30 27 23 20 17 15 15 15 16 17 17 17 17 17 17 19
41 43 45 47 49 53 55 56 57 57 52 44 38 38 39 41 43 46 47 46 45 44 44 43 42 41 39 36 33 30 27 23 19 15 13 12 13 14 16 16 17 19 20 20
41 43 44 45 48 51 53 54 55 55 51 44 37 35 35 36 38 40 42 43 43 42 42 42 42 42 41 39 37 35 31 28 24 20 17 14 14 15 16 18 19 21 22 23
40 42 43 44 46 50 52 52 52 53 51 44 36 32 31 32 34 36 37 38 38 39 39 39 39 40 41 40 39 39 37 34 31 27 25 23 22 21 21 23 24 25 26 26
40 42 42 42 44 48 50 50 51 52 51 45 36 30 28 27 28 30 32 33 34 34 34 35 35 35 36 37 37 38 38 37 36 34 32 31 30 29 29 29 29 28 28 28
40 41 41 41 43 46 48 48 49 50 50 46 38 31 27 25 24 25 26 28 28 29 30 30 30 30 30 31 33 34 34 35 35 35 35 34 34 33 32 32 31 30 30 30
40 41 40 41 42 44 45 46 46 47 49 48 42 33 26 23 22 21 22 23 24 24 25 25 26 26 25 26 27 28 28 29 30 30 30 30 30 31 31 31 30 30 29 28
40 40 40 40 41 43 44 44 43 44 46 47 44 37 28 22 20 18 18 18 18 19 20 21 20 21 21 21 21 21 22 22 23 23 24 24 25 25 25 25 25 25 24 24
40 40 40 40 41 42 42 42 42 42 43 45 44 39 31 24 20 17 16 15 14 14 15 16 16 16 16 16 17 17 16 16 17 17 18 18 18 18 18 18 19 19 19 19
39 39 39 39 40 41 41 41 41 41 41 43 43 40 33 25 19 17 15 14 12 11 11 11 12 12 11 12 12 12 11 11 11 11 11 12 12 13 13 13 14 14 14 14
Wind_Direction
314 308 300 298 306 309 308 308 309 309 308 307 308 307 306 305 305 304 303 302 301 299 298 296 294 292 289 287 285 282 279 275 271 268 266 265 264 263 263 263 262 262 261 261
318 315 311 309 317 313 311 312 311 311 312 310 310 310 309 309 308 306 305 304 303 301 299 297 295 293 293 292 292 292 290 287 282 277 272 269 266 264 263 262 261 260 260 260
329 326 320 316 323 316 316 316 315 316 315 312 312 312 312 312 309 308 308 307 305 303 302 300 299 298 299 299 300 300 299 297 295 291 287 282 277 272 268 265 262 261 260 260
338 337 322 325 324 320 321 321 319 320 319 319 317 316 317 316 314 314 312 310 308 306 304 302 301 301 300 299 298 297 295 293 291 289 287 285 283 281 278 275 270 264 260 258
342 338 324 331 330 327 328 328 325 325 324 323 321 321 321 319 317 315 312 311 310 308 306 304 303 302 301 299 298 296 294 291 289 287 285 282 281 281 279 279 277 273 266 260
341 336 330 335 332 333 332 330 329 328 325 323 321 321 321 321 319 317 316 314 312 309 307 306 304 303 301 299 297 295 293 290 286 284 281 279 278 276 275 274 275 274 271 266
340 336 331 335 332 330 330 330 328 326 325 325 326 326 326 325 323 320 318 314 311 308 306 306 304 303 301 299 297 294 292 289 286 282 279 277 275 273 270 269 268 268 267 266
338 335 330 331 329 331 331 331 330 330 330 329 330 329 328 327 325 322 318 314 310 307 306 305 303 302 300 299 297 294 291 288 285 282 279 277 274 270 267 265 262 261 263 262
336 333 330 330 331 331 331 332 332 332 332 332 332 332 331 329 327 323 319 315 312 309 307 306 304 302 300 299 297 294 291 288 284 281 279 275 271 267 263 260 257 255 256 256
332 332 332 331 330 330 331 332 333 334 335 335 335 334 333 331 328 325 321 318 315 312 310 308 306 304 302 300 297 294 291 289 285 282 277 273 268 264 260 255 250 247 247 247
333 333 332 329 329 330 333 335 336 337 338 338 337 336 335 333 331 328 325 323 320 319 317 314 311 307 305 302 299 296 293 290 286 280 275 269 264 260 254 248 241 237 237 239
332 331 331 331 332 333 335 337 338 339 340 340 339 338 338 336 334 333 331 330 328 326 324 321 318 314 310 306 303 301 297 292 286 280 273 267 261 253 243 235 230 228 229 231
331 331 331 332 333 335 337 339 341 342 342 343 342 341 341 340 339 339 338 338 338 337 335 332 329 326 321 316 312 308 303 298 291 282 271 261 251 240 230 226 222 220 222 225
331 332 333 334 336 337 340 342 343 345 345 345 345 346 346 346 346 345 345 346 346 345 344 343 341 341 339 334 329 324 318 312 303 288 268 249 233 220 214 211 209 208 210 213
332 333 334 336 338 340 341 343 346 347 348 348 349 350 351 352 354 353 353 353 355 354 355 355 355 356 355 354 351 348 344 337 327 306 251 209 194 190 189 188 187 188 191 192
332 333 335 337 339 341 343 345 348 349 351 351 352 354 355 358 360 0 1 2 3 4 4 4 6 7 8 9 10 12 13 18 30 59 116 146 158 163 167 168 168 170 171 171
332 334 337 339 341 343 345 347 350 351 352 353 354 357 360 3 5 6 6 8 9 11 12 12 14 16 18 20 22 27 34 42 55 75 102 125 140 149 154 158 159 161 160 158
334 336 338 340 342 345 346 348 351 353 354 354 355 359 2 5 7 9 10 12 13 15 18 20 21 23 26 29 33 39 45 54 64 79 99 118 134 145 152 156 159 159 155 152
334 336 338 340 342 345 347 349 352 354 355 355 356 359 3 6 8 9 11 14 16 20 22 24 27 30 32 36 39 43 47 52 62 75 94 115 134 146 152 155 157 158 153 148
332 335 338 340 342 344 347 349 352 354 355 356 356 359 2 5 8 10 11 14 19 22 24 27 31 36 39 42 45 48 52 55 60 69 81 99 118 135 143 147 150 152 150 146
330 334 337 339 341 343 346 348 351 354 357 356 355 357 360 3 5 9 12 16 21 24 27 30 34 38 43 47 50 54 57 59 63 70 79 88 99 111 122 131 136 139 140 141
328 331 334 337 340 343 345 347 350 353 357 357 354 354 357 1 4 7 10 14 19 23 26 28 32 37 42 45 49 54 58 61 65 71 78 85 91 99 107 115 122 126 130 134
324 328 332 335 338 342 344 346 348 351 355 357 356 352 351 354 358 3 6 11 15 20 23 26 30 35 40 45 49 54 58 61 65 70 76 82 88 94 101 107 113 118 123 127
321 325 329 332 336 340 342 344 347 349 352 355 356 353 348 346 348 352 357 4 10 16 20 23 26 31 37 44 49 53 57 61 66 70 74 80 86 92 98 104 109 114 118 123
317 321 325 329 333 337 340 342 344 347 350 353 354 353 347 340 338 340 345 352 360 7 14 19 22 26 32 39 44 49 55 61 66 71 76 80 86 93 98 103 108 113 117 121
313 317 321 325 330 334 337 339 342 345 348 350 352 352 347 337 329 328 331 338 346 354 2 10 17 21 27 32 38 43 50 57 63 70 78 84 89 94 100 107 113 117 120 124
307 311 316 321 326 331 335 337 339 341 345 347 349 350 347 339 324 317 317 319 326 336 346 355 3 10 16 23 30 36 41 45 51 58 71 83 92 99 105 112 119 125 130 133
Height
5848 5846 5844 5842 5839 5835 5830 5825 5820 5815 5808 5798 5792 5786 5778 5770 5761 5752 5742 5733 5724 5714 5705 5696 5687 5679 5671 5664 5659 5654 5651 5650 5648 5648 5648 5649 5651 5653 5656 5659 5662 5666 5670 5675
5845 5842 5839 5837 5834 5830 5824 5818 5813 5807 5801 5790 5781 5773 5764 5756 5745 5734 5723 5713 5703 5692 5681 5671 5661 5653 5646 5640 5635 5631 5628 5625 5623 5622 5621 5623 5624 5627 5630 5633 5637 5642 5647 5653
5841 5838 5836 5831 5829 5823 5818 5812 5805 5798 5792 5782 5773 5762 5752 5741 5729 5716 5705 5692 5679 5667 5656 5647 5640 5634 5630 5626 5622 5619 5616 5613 5610 5608 5606 5604 5604 5604 5606 5608 5612 5617 5622 5629
5838 5835 5832 5831 5824 5818 5812 5805 5796 5789 5779 5769 5759 5749 5738 5724 5709 5696 5681 5668 5656 5645 5638 5632 5627 5623 5619 5616 5612 5608 5605 5602 5599 5596 5595 5594 5593 5592 5591 5591 5592 5595 5599 5605
5835 5832 5827 5822 5817 5810 5803 5795 5785 5777 5766 5755 5743 5733 5723 5707 5691 5676 5661 5649 5639 5632 5627 5622 5617 5612 5608 5603 5599 5595 5591 5588 5585 5583 5581 5580 5580 5580 5580 5579 5580 5580 5582 5585
5832 5827 5823 5818 5810 5802 5796 5788 5774 5765 5755 5744 5732 5721 5710 5693 5675 5658 5646 5636 5628 5623 5617 5612 5607 5601 5595 5590 5585 5580 5576 5573 5570 5568 5567 5566 5566 5566 5566 5567 5568 5568 5570 5572
5829 5823 5816 5812 5804 5798 5790 5783 5772 5760 5748 5733 5719 5704 5689 5674 5659 5646 5635 5627 5620 5613 5607 5600 5594 5587 5580 5574 5569 5564 5559 5556 5553 5551 5550 5550 5550 5551 5552 5553 5555 5557 5559 5561
5825 5820 5814 5806 5798 5789 5781 5770 5758 5747 5734 5720 5705 5690 5673 5658 5646 5636 5627 5619 5611 5603 5595 5587 5579 5570 5563 5557 5551 5545 5541 5537 5535 5533 5532 5532 5533 5534 5536 5538 5541 5544 5546 5549
5821 5817 5808 5799 5790 5782 5772 5761 5749 5736 5723 5707 5692 5676 5661 5649 5638 5628 5618 5609 5599 5589 5580 5571 5562 5552 5544 5538 5531 5526 5521 5518 5516 5514 5514 5514 5515 5517 5520 5523 5527 5531 5534 5538
5816 5811 5803 5793 5784 5776 5766 5753 5740 5726 5711 5695 5679 5665 5651 5640 5630 5619 5609 5597 5585 5574 5563 5554 5544 5534 5526 5518 5512 5506 5502 5499 5497 5496 5496 5497 5499 5501 5505 5509 5513 5518 5522 5527
5810 5803 5797 5789 5779 5768 5757 5745 5731 5717 5700 5684 5669 5655 5643 5632 5621 5609 5597 5584 5571 5558 5547 5536 5526 5517 5508 5500 5493 5488 5485 5482 5480 5480 5480 5482 5484 5487 5491 5496 5501 5507 5513 5517
5805 5797 5789 5780 5770 5759 5748 5737 5723 5708 5693 5677 5661 5648 5636 5625 5612 5599 5585 5572 5558 5546 5533 5522 5511 5501 5492 5485 5478 5473 5469 5467 5465 5465 5466 5468 5471 5475 5479 5486 5492 5498 5505 5510
5799 5792 5783 5774 5764 5753 5742 5729 5715 5700 5685 5670 5656 5643 5631 5619 5605 5591 5577 5562 5548 5535 5522 5510 5499 5489 5480 5473 5467 5462 5458 5456 5454 5453 5455 5457 5461 5466 5472 5478 5485 5492 5499 5504
5792 5785 5777 5768 5758 5746 5735 5723 5709 5694 5679 5663 5651 5639 5627 5614 5600 5586 5571 5556 5542 5528 5515 5503 5492 5482 5473 5466 5460 5455 5451 5448 5446 5446 5447 5450 5454 5460 5466 5474 5481 5488 5495 5500
5785 5778 5770 5761 5752 5741 5730 5718 5705 5690 5676 5661 5649 5637 5625 5612 5598 5583 5569 5554 5540 5527 5514 5502 5491 5481 5472 5465 5458 5453 5449 5446 5444 5443 5444 5447 5452 5458 5465 5473 5480 5487 5493 5499
5781 5773 5765 5756 5747 5737 5725 5713 5700 5686 5672 5659 5647 5636 5624 5611 5598 5584 5570 5556 5542 5529 5517 5506 5495 5485 5476 5468 5462 5457 5452 5449 5446 5446 5447 5450 5455 5461 5468 5475 5483 5489 5495 5500
5775 5768 5759 5751 5742 5732 5720 5708 5696 5683 5670 5657 5646 5636 5625 5613 5601 5588 5575 5561 5548 5535 5523 5512 5502 5492 5484 5476 5469 5463 5459 5456 5454 5454 5455 5458 5462 5467 5473 5480 5486 5492 5497 5502
5769 5761 5753 5744 5736 5727 5716 5705 5693 5681 5668 5656 5646 5636 5626 5616 5604 5593 5581 5569 5557 5545 5533 5522 5511 5502 5493 5486 5479 5473 5469 5466 5464 5464 5465 5467 5470 5474 5479 5485 5490 5496 5501 5507
5764 5757 5749 5740 5732 5723 5713 5702 5691 5679 5667 5656 5646 5637 5627 5618 5608 5598 5588 5577 5566 5555 5545 5534 5523 5514 5505 5497 5491 5485 5480 5476 5474 5473 5473 5474 5477 5480 5484 5489 5495 5500 5506 5512
5759 5752 5745 5737 5728 5719 5709 5699 5689 5678 5667 5655 5646 5638 5629 5621 5613 5604 5595 5585 5574 5564 5555 5546 5536 5527 5519 5511 5504 5497 5492 5488 5485 5483 5482 5482 5483 5486 5490 5495 5500 5505 5512 5518
5754 5748 5740 5733 5725 5716 5706 5696 5687 5677 5666 5655 5646 5638 5631 5623 5616 5609 5601 5593 5583 5575 5566 5558 5550 5542 5534 5526 5519 5513 5507 5502 5498 5495 5493 5492 5493 5494 5497 5501 5506 5512 5518 5525
5749 5743 5736 5729 5722 5713 5704 5694 5684 5675 5665 5656 5646 5639 5632 5626 5620 5613 5606 5599 5591 5584 5576 5569 5562 5555 5548 5542 5535 5529 5523 5518 5514 5510 5508 5507 5507 5508 5510 5513 5518 5523 5528 5534
5743 5737 5731 5725 5718 5710 5701 5692 5682 5673 5664 5656 5647 5639 5632 5626 5621 5616 5610 5604 5597 5591 5585 5578 5572 5566 5561 5555 5550 5544 5540 5535 5531 5528 5526 5524 5524 5525 5526 5529 5532 5536 5541 5546
5738 5732 5726 5720 5713 5706 5698 5690 5681 5672 5663 5654 5646 5638 5632 5627 5622 5617 5612 5607 5602 5597 5591 5586 5581 5576 5571 5566 5562 5558 5554 5550 5547 5545 5543 5541 5541 5541 5542 5544 5546 5550 5553 5557
5731 5726 5721 5715 5709 5702 5695 5687 5679 5671 5662 5653 5645 5637 5631 5626 5622 5618 5613 5609 5605 5601 5596 5592 5588 5584 5580 5576 5572 5568 5565 5562 5560 5558 5556 5556 5555 5555 5556 5557 5559 5561 5564 5567
5724 5719 5714 5709 5704 5698 5691 5683 5676 5668 5660 5652 5644 5636 5629 5624 5620 5616 5613 5610 5606 5603 5599 5596 5592 5589 5586 5582 5579 5576 5574 5572 5570 5568 5567 5566 5566 5566 5567 5568 5569 5570 5572 5575
5717 5712 5708 5703 5697 5691 5685 5678 5671 5664 5657 5650 5642 5635 5627 5622 5617 5614 5612 5609 5606 5603 5600 5597 5594 5592 5589 5587 5585 5582 5580 5579 5577 5576 5575 5574 5574 5574 5575 5575 5576 5578 5579 5581